This demonstration page uses our WeatherBlox Daily Observations layout. Learn more.

Left ArrowRight Arrow

41.86663, -103.66717

Hourly Observations for February 6, 2019

Temp ( °F °C ) Dew Point ( °F °C ) Humidity (%) Winds ( mph kmh ) Pressure ( in mb ) Visibility ( mi km ) Precip ( " mm )
12:30 am 00:30 Cloudy with Mist and Fog 19 -7 19 -7 100 100 SE 13 20 29.95 1014 2 3 N/A
12:53 am 00:53 Cloudy with Mist and Fog 20 -6.7 20 -6.7 100 100 ESE 15 24 29.79 1009 2 2 N/A
1:53 am 01:53 Cloudy with Mist and Fog 20 -6.7 20 -6.7 100 100 ESE 14 22 29.77 1008 2 3 N/A
2:08 am 02:08 Cloudy with Mist and Fog 20 -6.7 20 -6.7 100 100 SE 8 13 29.95 1014 2 3 N/A
2:38 am 02:38 Cloudy with Mist and Fog 19 -7 19 -7 100 100 ESE 9 15 29.95 1014 3 5 N/A
2:53 am 02:53 Cloudy with Mist and Fog 20 -6.7 20 -6.7 100 100 E 10 17 29.79 1009 3 5 N/A
3:23 am 03:23 Cloudy with Mist and Fog 18 -7.8 18 -7.8 100 100 NNE 14 22 29.98 1015 3 4 N/A
3:26 am 03:26 Cloudy with Light Freezing Rain 15 -9.4 13 -10.6 91 91 NNE 15 24 30.01 1016 3 5 N/A
3:36 am 03:36 Cloudy with Light Freezing Rain 13 -10.6 11 -11.7 92 92 NNE 17 28 30.03 1017 6 10 N/A
3:53 am 03:53 Cloudy with Mist and Fog 12 -11.1 10 -12.2 92 92 NNE 20 31 29.83 1010 6 10 N/A
4:53 am 04:53 Cloudy with Mist and Fog 10 -12.2 8 -13.3 92 92 NE 14 22 29.86 1011 5 8 N/A
5:39 am 05:39 Cloudy with Light Snow 10 -12 9 -13 92 92 NNE 14 22 30.06 1018 3 4 N/A
5:53 am 05:53 Cloudy with Light Snow 9 -12.8 7 -13.9 92 92 NE 15 24 29.89 1012 3 4 N/A
6:53 am 06:53 Cloudy with Light Snow 8 -13.3 6 -14.4 92 92 NE 16 26 29.92 1013 3 4 N/A
7:34 am 07:34 Cloudy with Light Snow 9 -13 5 -15 85 85 VRB 6 9 30.13 1020 2 3 N/A
7:53 am 07:53 Cloudy with Light Snow 8 -13.3 5 -15 87 87 NE 10 17 29.97 1015 2 2 N/A
8:18 am 08:18 Cloudy with Light Snow 7 -13.9 5 -15 91 91 NE 9 15 30.17 1022 2 3 N/A
8:26 am 08:26 Cloudy with Light Snow 7 -14 5 -15 92 92 ENE 10 17 30.18 1022 2 3 N/A
8:40 am 08:40 Cloudy with Light Snow 7 -13.9 5 -15 91 91 ENE 9 15 30.18 1022 3 5 N/A
8:53 am 08:53 Cloudy with Light Snow 7 -13.9 4 -15.6 87 87 NE 10 17 30.01 1016 4 6 N/A
9:17 am 09:17 Cloudy with Light Snow 7 -14 3 -16 85 85 NNE 10 17 30.20 1023 3 4 N/A
9:30 am 09:30 Cloudy with Light Snow 6 -14.4 3 -16.1 87 87 NE 5 7 30.22 1023 1 2 N/A
9:53 am 09:53 Cloudy with Light Snow 7 -13.9 4 -15.6 87 87 NE 9 15 30.03 1017 1 2 0.01 0.25
10:02 am 10:02 Cloudy with Light Snow 6 -14.4 3 -16.1 87 87 NE 13 20 30.21 1023 1 2 N/A
10:40 am 10:40 Cloudy with Light Snow 7 -14 3 -16 85 85 NE 13 20 30.22 1023 3 4 N/A
10:53 am 10:53 Cloudy with Light Snow 6 -14.4 3 -16.1 87 87 ENE 9 15 30.06 1018 3 5 N/A
11:02 am 11:02 Cloudy with Light Snow 6 -14.4 3 -16.1 87 87 NNE 6 9 30.25 1024 2 3 N/A
11:30 am 11:30 Cloudy with Light Snow 7 -14 1 -17 78 78 NE 12 19 30.23 1024 1 2 N/A
11:53 am 11:53 Cloudy with Light Snow 6 -14.4 3 -16.1 87 87 NE 9 15 30.05 1018 1 1 N/A
12:05 pm 12:05 Cloudy with Light Snow 7 -13.9 3 -16.1 84 84 NNE 9 15 30.22 1023 1 2 0.01 0.25
12:53 pm 12:53 Cloudy with Light Snow 7 -13.9 3 -16.1 84 84 N 9 15 30.03 1017 1 2 0.02 0.51
1:11 pm 13:11 Cloudy with Light Snow 6 -14.4 2 -16.7 83 83 N 9 15 30.23 1024 1 2 N/A
1:24 pm 13:24 Cloudy with Light Snow 6 -14.4 2 -16.7 83 83 N 7 11 30.24 1024 1 2 0.01 0.25
1:37 pm 13:37 Mostly Cloudy with Light Snow 7 -14 1 -17 78 78 N 9 15 30.23 1024 1 1 N/A
1:53 pm 13:53 Mostly Cloudy with Snow 6 -14.4 3 -16.1 87 87 NNE 6 9 30.07 1018 1 1 0.03 0.76
2:53 pm 14:53 Mostly Cloudy with Snow 5 -15 2 -16.7 87 87 NNE 12 19 30.06 1018 0 0 0.04 1.02
3:02 pm 15:02 Mostly Cloudy with Heavy Snow 5 -15 2 -16.7 87 87 N 12 19 30.25 1024 0 0 0.01 0.25
3:18 pm 15:18 Mostly Cloudy with Light Snow 4 -15.6 1 -17.2 88 88 N 12 19 30.27 1025 1 1 0.02 0.51
3:23 pm 15:23 Mostly Cloudy with Light Snow 4 -15.6 1 -17.2 88 88 N 12 19 30.27 1025 1 2 0.02 0.51
3:43 pm 15:43 Mostly Cloudy with Light Snow 4 -15.6 N/A 83 83 NNE 10 17 30.29 1026 1 1 0.03 0.76
3:53 pm 15:53 Mostly Cloudy with Light Snow 3 -16.1 -1 -18.3 83 83 N 12 19 30.12 1020 1 1 0.03 0.76
4:11 pm 16:11 Mostly Cloudy with Snow 3 -16 N/A 85 85 N 7 11 30.30 1026 1 1 N/A
4:53 pm 16:53 Mostly Cloudy with Light Snow 2 -16.7 -2 -18.9 83 83 N 9 15 30.16 1022 1 2 0.03 0.76
5:06 pm 17:06 Cloudy with Light Snow 2 -16.7 -3 -19.4 80 80 NNE 10 17 30.35 1028 3 5 N/A
5:17 pm 17:17 Cloudy with Light Snow 1 -17 -2 -19 85 85 N 7 11 30.35 1028 7 11 N/A
5:53 pm 17:53 Cloudy with Light Snow 2 -16.7 -3 -19.4 80 80 N 5 7 30.19 1022 3 5 0.01 0.25
6:07 pm 18:07 Cloudy with Light Snow 1 -17 -2 -19 85 85 NNE 7 11 30.37 1029 2 3 N/A
6:16 pm 18:16 Cloudy with Light Snow 2 -16.7 -3 -19.4 80 80 NNE 9 15 30.36 1028 2 2 N/A
6:28 pm 18:28 Cloudy with Light Snow 1 -17.2 -3 -19.4 83 83 N 10 17 30.37 1028 3 4 N/A
6:36 pm 18:36 Cloudy with Light Snow 1 -17 -2 -19 85 85 N 10 17 30.37 1029 4 6 N/A
6:53 pm 18:53 Cloudy 1 -17.2 -4 -20 79 79 N 9 15 30.21 1023 9 14 N/A
7:53 pm 19:53 Cloudy -1 -18.3 -6 -21.1 79 79 NE 7 11 30.23 1024 10 16 N/A
8:32 pm 20:32 Cloudy with Light Snow N/A -6 -21.1 76 76 N N/A 30.44 1031 2 3 N/A
8:40 pm 20:40 Cloudy with Light Snow N/A -6 -21 78 78 N N/A 30.45 1031 2 3 N/A
8:50 pm 20:50 Cloudy with Light Snow N/A -6 -21 78 78 N 7 11 30.44 1031 3 4 N/A
8:53 pm 20:53 Cloudy with Light Snow N/A -5 -20.6 79 79 N 8 13 30.26 1025 3 4 0.01 0.25
9:06 pm 21:06 Mostly Cloudy with Light Snow N/A -5 -20.6 79 79 N 7 11 30.44 1031 5 8 N/A
9:53 pm 21:53 Cloudy -1 -18.3 -7 -21.7 75 75 N 10 17 30.27 1025 10 16 N/A
10:53 pm 22:53 Partly Cloudy -1 -18.3 -7 -21.7 75 75 NNW 7 11 30.29 1026 10 16 N/A
11:53 pm 23:53 Cloudy -1 -18.3 -8 -22.2 72 72 NNW 13 20 30.30 1026 10 16 N/A

Powered by AerisWeather